GW0092 Weather Reports


time (UTC)temp
F
wind
direction
speed
knots
gust
knots
rain 1hr
in
rain 24hr
in
rain mn
in
humidity
%
barometer
mb
20260506141552 69 86 1.7 6.1 0.00 0.00 0.00 84 1013.0
20260506140052 68 151 1.7 4.3 0.00 0.00 0.00 85 1013.2
20260506134552 67 112 2.6 5.2 0.00 0.00 0.00 85 1013.3
20260506133109 66 136 1.7 7.8 0.00 0.00 0.00 87 1013.3
20260506131608 65 140 2.6 8.7 0.00 0.00 0.00 88 1013.5
20260506130053 65 103 1.7 8.7 0.00 0.00 0.00 89 1013.5
20260506124552 64 162 1.7 4.3 0.00 0.00 0.00 90 1013.6
20260506123052 63 118 1.7 4.3 0.00 0.00 0.00 91 1013.6
20260506121557 63 179 1.7 7.0 0.00 0.00 0.00 91 1013.6
20260506120103 62 156 1.7 6.1 0.00 0.00 0.00 92 1013.5
20260506114553 62 108 1.7 7.0 0.00 0.00 0.00 92 1013.6
20260506113058 62 116 1.7 4.3 0.00 0.00 0.00 92 1013.4
20260506111557 61 140 1.7 6.1 0.00 0.00 0.00 93 1013.4
20260506110101 61 0 0.9 4.3 0.00 0.00 0.00 94 1013.5
20260506104608 60 167 1.7 11.3 0.00 0.00 0.00 94 1013.5
20260506103052 60 122 0.9 3.5 0.00 0.00 0.00 94 1013.4
20260506101552 60 172 0.9 5.2 0.00 0.00 0.00 95 1013.5
20260506094600 60 166 1.7 4.3 0.00 0.00 0.00 95 1013.5
20260506093052 60 179 0.9 2.6 0.00 0.00 0.00 94 1013.5
20260506091549 60 108 0.9 5.2 0.00 0.00 0.00 94 1013.4
20260506090053 60 129 0.9 4.3 0.00 0.00 0.00 94 1013.5
20260506084618 60 131 0.9 2.6 0.00 0.00 0.00 94 1013.6
20260506083053 60 162 0.9 2.6 0.00 0.00 0.00 94 1013.8
20260506081557 60 43 0.9 2.6 0.00 0.00 0.00 93 1013.8
20260506080312 60 129 0.9 2.6 0.00 0.00 0.00 93 1013.6
20260506073058 61 158 1.7 3.5 0.00 0.00 0.00 93 1013.7
20260506071558 61 144 1.7 5.2 0.00 0.00 0.00 92 1013.6
20260506061555 62 124 2.6 7.0 0.00 0.00 0.00 90 1014.0
20260506044553 63 176 1.7 9.6 0.00 0.00 0.00 87 1014.5
20260506043052 63 147 1.7 7.8 0.00 0.00 0.00 86 1014.4
20260506041606 63 18 1.7 6.1 0.00 0.00 0.00 87 1014.3
20260506040058 63 104 1.7 5.2 0.00 0.00 0.00 87 1014.4
20260506034550 63 195 2.6 6.1 0.00 0.00 0.00 88 1014.4
20260506033051 63 130 0.9 5.2 0.00 0.00 0.00 88 1014.4
20260506031557 63 205 0.9 3.5 0.00 0.00 0.00 88 1014.4
20260506030053 63 140 0.9 5.2 0.00 0.00 0.00 88 1014.5
20260506024553 63 0 0.9 3.5 0.00 0.00 0.00 88 1014.5
20260506023106 63 148 1.7 4.3 0.00 0.00 0.00 88 1014.7
20260506021609 63 219 1.7 3.5 0.00 0.00 0.00 87 1014.7
20260506020052 63 86 0.9 3.5 0.00 0.00 0.00 87 1014.5
20260506014553 63 143 0.9 3.5 0.00 0.00 0.00 86 1014.6
20260506013100 63 153 1.7 6.1 0.00 0.00 0.00 85 1014.4
20260506011611 64 164 2.6 6.1 0.00 0.00 0.00 85 1014.2
20260506010058 64 177 1.7 9.6 0.00 0.00 0.00 84 1014.1
20260506004555 64 166 1.7 9.6 0.00 0.00 0.00 84 1013.9
20260506003054 64 217 2.6 7.8 0.00 0.00 0.00 84 1013.8
20260506001555 64 162 1.7 6.1 0.00 0.00 0.00 85 1013.5
20260506000051 64 167 1.7 7.0 0.00 0.00 0.00 84 1013.5
20260505234552 64 129 1.7 5.2 0.00 0.00 0.00 84 1013.5
20260505233100 65 145 2.6 7.8 0.00 0.00 0.00 84 1013.3
20260505231609 65 0 1.7 5.2 0.00 0.00 0.00 83 1013.2
20260505230052 65 155 1.7 10.4 0.00 0.00 0.00 82 1013.3
20260505224556 66 147 3.5 7.8 0.00 0.00 0.00 81 1013.3
20260505223052 67 127 1.7 10.4 0.00 0.00 0.00 80 1013.1
20260505221553 67 72 2.6 8.7 0.00 0.00 0.00 78 1013.1
20260505220059 69 237 1.7 5.2 0.00 0.00 0.00 76 1013.1
20260505214558 69 101 2.6 5.2 0.00 0.00 0.00 74 1013.2
20260505213050 70 198 1.7 7.8 0.00 0.00 0.00 74 1013.0
20260505211552 70 46 2.6 7.8 0.00 0.00 0.00 73 1013.2
20260505210058 70 125 1.7 5.2 0.00 0.00 0.00 72 1013.2
20260505204555 71 154 2.6 7.8 0.00 0.00 0.00 72 1013.2
20260505203117 72 133 3.5 9.6 0.00 0.00 0.00 71 1013.4
20260505201603 72 213 1.7 7.0 0.00 0.00 0.00 69 1013.4
20260505200057 72 87 2.6 11.3 0.00 0.00 0.00 71 1013.7
20260505194558 72 341 1.7 7.8 0.00 0.00 0.00 71 1013.7
20260505193053 71 94 2.6 12.2 0.00 0.00 0.00 72 1013.7
20260505191603 71 228 2.6 7.8 0.00 0.00 0.00 72 1013.9
20260505190057 71 164 4.3 10.4 0.00 0.00 0.00 73 1014.0
20260505184557 71 176 1.7 8.7 0.00 0.00 0.00 73 1014.2
20260505183052 71 94 2.6 6.1 0.00 0.00 0.00 74 1014.1
20260505181552 71 127 2.6 6.1 0.00 0.00 0.00 74 1014.3
20260505180057 72 90 2.6 7.8 0.00 0.00 0.00 73 1014.4
20260505174555 71 106 2.6 11.3 0.00 0.00 0.00 74 1014.3
20260505173057 71 69 2.6 8.7 0.00 0.00 0.00 74 1014.3
20260505171556 71 148 2.6 5.2 0.00 0.00 0.00 75 1014.3
20260505170109 71 180 2.6 6.1 0.00 0.00 0.00 74 1014.4
20260505164559 71 176 2.6 7.8 0.00 0.00 0.00 75 1014.4
20260505163053 70 160 2.6 8.7 0.00 0.00 0.00 76 1014.5
20260505161614 72 89 1.7 5.2 0.00 0.00 0.00 73 1014.5
20260505153103 71 151 0.9 4.3 0.00 0.00 0.00 76 1014.7
20260505151603 71 159 0.9 5.2 0.00 0.00 0.00 74 1014.7